7 * 24
多渠道服务支持
STARLINK-36964(NORAD编号68184)是SpaceX星链(Starlink)星座中的一颗低轨互联网通信卫星,属于SpaceX大规模卫星互联网部署的组成部分。 星链星座旨在为全球提供高速低延迟宽带网络服务,该卫星配备相控阵天线与星间激光链路技术,可实现多用户同时通信与高效数据传输。2026年SpaceX启动降低4400颗星链卫星轨道高度计划,STARLINK-36964大概率包含在本次调轨任务中,降轨后可缩短故障卫星再入大气层时间,降低太空碰撞与碎片风险。
美国
(US)
| 数据来源 | 国际轨道数据 |
| 星历时间: | 2026-05-24T02:44:21+0800 1天前 查看轨道信息 |
| 半长轴: | 6827.274km |
| 偏心率: | 0.000075 |
| 轨道倾角: | 53.159° |
| 近地点辐角 | 81.267° |
| 升交点赤经 | 277.698° |
| 平近点角 | 278.842° |
| 近地点: | 448.624km |
| 远地点: | 449.65km |
| 周期: | 93.569分钟 |
| 每日圈数: | 15.38976 |